Fort Meade, MD

12:52 PM EDT on March 28, 2017 (GMT -0400)
Tipton

Weather History for KFME - February, 2014

Change the Weather History Date:

Thursday, February 27, 2014

  Actual Average (KBWI) Record (KBWI)
Temperature  
Mean Temperature 26 °F -  
Max Temperature 39 °F 48 °F 76 °F (1997)
Min Temperature 14 °F 28 °F 9 °F (1934)
Degree Days  
Heating Degree Days 38    
Moisture  
Dew Point 10 °F    
Average Humidity 56    
Maximum Humidity 93    
Minimum Humidity 26    
Precipitation  
Precipitation 0.00 in - - ()
Sea Level Pressure  
Sea Level Pressure 29.85 in    
Wind  
Wind Speed 6 mph (WNW)    
Max Wind Speed 24 mph    
Max Gust Speed 34 mph    
Visibility 10 miles    
Events      
Averages and records for this station are not official NWS values.
T = Trace of Precipitation, MM = Missing Value Source: NWS Daily Summary

Daily Weather History Graph

Daily Weather History Graph

Search for Another Location

Airport or City:

Trip Planner

Search our weather history database for the weather conditions in past years. The results will help you decide how hot, cold, wet, or windy it might be!

Date:

Astronomy

Feb. 27, 2014 Rise Set
Actual Time 6:42 AM EST 5:57 PM EST
Civil Twilight 6:15 AM EST 6:24 PM EST
Nautical Twilight 5:44 AM EST 6:55 PM EST
Astronomical Twilight 5:13 AM EST 7:26 PM EST
Moon 5:12 AM EST (2/27) 4:21 PM EST (2/27)
Length of Visible Light 12h 08m
Length of Day
11h 14m
Waning Crescent, 4% of the Moon is Illuminated
Feb 27
Waning Crescent
Mar 1
New
Mar 8
First Quarter
Mar 16
Full
Mar 23
Last Quarter

Hourly Weather History & Observations

Time (EST) Temp. Windchill Dew Point Humidity Pressure Visibility Wind Dir Wind Speed Gust Speed Precip Events Conditions
12:18 AM 17.6 °F - 10.4 °F 73% 29.91 in 10.0 mi Calm Calm - N/A   Clear
12:39 AM 17.6 °F - 12.2 °F 79% 29.91 in 10.0 mi Calm Calm - N/A   Clear
12:57 AM 17.6 °F - 12.2 °F 79% 29.91 in 10.0 mi Calm Calm - N/A   Clear
1:18 AM 17.6 °F - 12.2 °F 79% 29.90 in 10.0 mi Calm Calm - N/A   Clear
1:39 AM 15.8 °F - 12.2 °F 86% 29.90 in 10.0 mi Calm Calm - N/A   Clear
1:57 AM 15.8 °F - 12.2 °F 86% 29.89 in 10.0 mi Calm Calm - N/A   Clear
2:18 AM 14.0 °F - 12.2 °F 93% 29.88 in 10.0 mi Calm Calm - N/A   Clear
2:39 AM 14.0 °F - 12.2 °F 93% 29.86 in 10.0 mi Calm Calm - N/A   Clear
2:57 AM 14.0 °F - 12.2 °F 93% 29.85 in 10.0 mi Calm Calm - N/A   Clear
3:18 AM 14.0 °F - 10.4 °F 86% 29.84 in 10.0 mi Calm Calm - N/A   Clear
3:39 AM 14.0 °F - 12.2 °F 93% 29.83 in 10.0 mi Calm Calm - N/A   Clear
3:57 AM 14.0 °F - 12.2 °F 93% 29.81 in 10.0 mi Calm Calm - N/A   Clear
4:18 AM 14.0 °F - 12.2 °F 93% 29.81 in 10.0 mi Calm Calm - N/A   Clear
4:39 AM 14.0 °F - 10.4 °F 86% 29.79 in 10.0 mi Calm Calm - N/A   Clear
4:57 AM 14.0 °F - 10.4 °F 86% 29.79 in 10.0 mi Calm Calm - N/A   Scattered Clouds
5:18 AM 15.8 °F - 14.0 °F 93% 29.79 in 10.0 mi Calm Calm - N/A   Overcast
5:39 AM 17.6 °F - 14.0 °F 86% 29.79 in 10.0 mi Calm Calm - N/A   Overcast
5:57 AM 17.6 °F - 14.0 °F 86% 29.79 in 10.0 mi Calm Calm - N/A   Overcast
6:18 AM 19.4 °F - 14.0 °F 80% 29.78 in 10.0 mi Calm Calm - N/A   Overcast
6:39 AM 19.4 °F - 15.8 °F 86% 29.77 in 10.0 mi Calm Calm - N/A   Overcast
6:57 AM 19.4 °F - 15.8 °F 86% 29.77 in 10.0 mi Calm Calm - N/A   Overcast
7:18 AM 19.4 °F - 14.0 °F 80% 29.77 in 10.0 mi Calm Calm - N/A   Mostly Cloudy
7:39 AM 19.4 °F - 15.8 °F 86% 29.76 in 10.0 mi Calm Calm - N/A   Scattered Clouds
8:00 AM 23.0 °F - 17.6 °F 80% 29.77 in 10.0 mi Calm Calm - N/A   Mostly Cloudy
8:18 AM 23.0 °F - 17.6 °F 80% 29.76 in 10.0 mi Calm Calm - N/A   Mostly Cloudy
8:39 AM 26.6 °F 21.2 °F 15.8 °F 64% 29.76 in 10.0 mi SSW 4.6 mph - N/A   Mostly Cloudy
9:00 AM 28.4 °F 23.3 °F 17.6 °F 64% 29.75 in 10.0 mi South 4.6 mph - N/A   Scattered Clouds
9:18 AM 30.2 °F 22.6 °F 17.6 °F 60% 29.75 in 10.0 mi SSW 8.1 mph - N/A   Scattered Clouds
9:39 AM 32.0 °F 24.2 °F 17.6 °F 55% 29.74 in 10.0 mi SSW 9.2 mph - N/A   Clear
10:00 AM 32.0 °F 22.1 °F 17.6 °F 55% 29.73 in 10.0 mi WSW 13.8 mph - N/A   Clear
10:18 AM 33.8 °F 23.9 °F 17.6 °F 52% 29.72 in 10.0 mi SW 15.0 mph 19.6 mph N/A   Scattered Clouds
10:39 AM 33.8 °F 23.9 °F 14.0 °F 44% 29.72 in 10.0 mi West 15.0 mph 19.6 mph N/A   Scattered Clouds
11:00 AM 35.6 °F 25.9 °F 12.2 °F 38% 29.72 in 10.0 mi West 16.1 mph 21.9 mph N/A   Scattered Clouds
11:18 AM 35.6 °F 26.2 °F 8.6 °F 33% 29.73 in 10.0 mi WSW 15.0 mph 27.6 mph N/A   Clear
11:39 AM 35.6 °F 26.2 °F 6.8 °F 30% 29.73 in 10.0 mi West 15.0 mph 23.0 mph N/A   Clear
12:00 PM 35.6 °F 26.6 °F 8.6 °F 33% 29.73 in 10.0 mi West 13.8 mph 20.7 mph N/A   Clear
12:18 PM 35.6 °F 25.9 °F 8.6 °F 33% 29.72 in 10.0 mi West 16.1 mph 24.2 mph N/A   Clear
12:39 PM 35.6 °F 25.2 °F 5.0 °F 28% 29.71 in 10.0 mi West 18.4 mph 27.6 mph N/A   Clear
1:00 PM 37.4 °F 29.8 °F 5.0 °F 26% 29.71 in 10.0 mi WNW 11.5 mph 23.0 mph N/A   Clear
1:18 PM 37.4 °F 31.4 °F 8.6 °F 30% 29.71 in 10.0 mi NW 8.1 mph 23.0 mph N/A   Clear
2:00 PM 37.4 °F 28.2 °F 8.6 °F 30% 29.71 in 10.0 mi West 16.1 mph 25.3 mph N/A   Clear
2:18 PM 39.2 °F 30.8 °F 10.4 °F 31% 29.72 in 10.0 mi West 15.0 mph 24.2 mph N/A   Clear
2:39 PM 37.4 °F 27.8 °F 5.0 °F 26% 29.74 in 10.0 mi WNW 17.3 mph 29.9 mph N/A   Clear
3:00 PM 37.4 °F 27.5 °F 6.8 °F 28% 29.75 in 10.0 mi WNW 18.4 mph 26.5 mph N/A   Clear
3:18 PM 35.6 °F 25.2 °F 5.0 °F 28% 29.76 in 10.0 mi NW 18.4 mph 27.6 mph N/A   Clear
3:39 PM 35.6 °F 24.0 °F 5.0 °F 28% 29.76 in 10.0 mi NW 23.0 mph 29.9 mph N/A   Clear
4:00 PM 35.6 °F 25.5 °F 5.0 °F 28% 29.78 in 10.0 mi WNW 17.3 mph 27.6 mph N/A   Clear
4:21 PM 33.8 °F 21.3 °F 5.0 °F 30% 29.78 in 10.0 mi WNW 24.2 mph 34.5 mph N/A   Clear
4:39 PM 33.8 °F 21.6 °F 5.0 °F 30% 29.80 in 10.0 mi WNW 23.0 mph 31.1 mph N/A   Clear
5:00 PM 33.8 °F 23.5 °F 3.2 °F 28% 29.83 in 10.0 mi WNW 16.1 mph 31.1 mph N/A   Clear
5:21 PM 32.0 °F 20.8 °F 3.2 °F 30% 29.85 in 10.0 mi WNW 17.3 mph 31.1 mph N/A   Clear
5:39 PM 32.0 °F 21.6 °F 3.2 °F 30% 29.86 in 10.0 mi WNW 15.0 mph 26.5 mph N/A   Clear
6:00 PM 32.0 °F 23.0 °F 3.2 °F 30% 29.88 in 10.0 mi WNW 11.5 mph 24.2 mph N/A   Clear
6:21 PM 32.0 °F 23.6 °F 5.0 °F 32% 29.91 in 10.0 mi NW 10.4 mph 18.4 mph N/A   Clear
6:39 PM 30.2 °F 19.8 °F 6.8 °F 37% 29.93 in 10.0 mi NW 13.8 mph 24.2 mph N/A   Clear
7:00 PM 30.2 °F 19.3 °F 8.6 °F 40% 29.95 in 10.0 mi WNW 15.0 mph 23.0 mph N/A   Clear
7:21 PM 28.4 °F 18.5 °F 10.4 °F 47% 29.97 in 10.0 mi NNW 11.5 mph - N/A   Clear
7:39 PM 28.4 °F 18.5 °F 8.6 °F 43% 29.99 in 10.0 mi NW 11.5 mph 20.7 mph N/A   Clear
8:00 PM 28.4 °F 18.5 °F 6.8 °F 40% 30.00 in 10.0 mi NW 11.5 mph - N/A   Clear
8:21 PM 26.6 °F 17.5 °F 8.6 °F 47% 30.01 in 10.0 mi NNW 9.2 mph 19.6 mph N/A   Clear
8:39 PM 26.6 °F 15.2 °F 8.6 °F 47% 30.03 in 10.0 mi NNW 13.8 mph 26.5 mph N/A   Clear
9:21 PM 23.0 °F 10.1 °F 6.8 °F 50% 30.08 in 10.0 mi NNW 15.0 mph 21.9 mph N/A   Clear
9:39 PM 23.0 °F 11.7 °F 5.0 °F 46% 30.09 in 10.0 mi NNW 11.5 mph 21.9 mph N/A   Clear
10:00 PM 21.2 °F 8.9 °F 5.0 °F 50% 30.11 in 10.0 mi North 12.7 mph 23.0 mph N/A   Clear
10:21 PM 21.2 °F 8.3 °F 3.2 °F 46% 30.13 in 10.0 mi NW 13.8 mph 23.0 mph N/A   Clear
10:39 PM 21.2 °F 8.9 °F 3.2 °F 46% 30.14 in 10.0 mi NNW 12.7 mph 18.4 mph N/A   Clear
11:00 PM 19.4 °F 7.2 °F 1.4 °F 46% 30.15 in 10.0 mi NNW 11.5 mph 17.3 mph N/A   Clear
11:21 PM 19.4 °F 7.2 °F -0.4 °F 42% 30.17 in 10.0 mi NNW 11.5 mph 18.4 mph N/A   Clear
11:39 PM 19.4 °F 5.0 °F -2.2 °F 39% 30.19 in 10.0 mi North 16.1 mph 25.3 mph N/A   Clear